Regional Weather Roundup
Issued by NWS

Home | Current Version | Previous Version | Text Only | Print | Product List | Glossary On
Versions: 1 2 3 4 5 6 7 8 9 10 11 12 13 14 15 16 17 18 19 20 21 22 23 24 25 26 27 28
000
ASUS45 KBOI 300510
RWRID

IDAHO REGIONAL WEATHER ROUNDUP
NATIONAL WEATHER SERVICE BOISE ID
1100 PM MDT THU SEP 29 2016

NOTE: "FAIR" INDICATES FEW OR NO CLOUDS BELOW 12000 FEET
WITH NO SIGNIFICANT WEATHER AND/OR OBSTRUCTIONS TO VISIBILITY

IDZ012-014-300600-
SOUTHWEST IDAHO


CITY           SKY/WX    TMP DP  RH WIND       PRES   REMARKS
BOISE          PTCLDY    74  42  31 E16       29.98R
CALDWELL       PTCLDY    72  46  39 VRB6      29.95R
MOUNTAIN HOME  PTCLDY    69  47  46 E13       30.01R
$$

IDZ016-017-300600-
SOUTHCENTRAL IDAHO


CITY           SKY/WX    TMP DP  RH WIND       PRES   REMARKS
BURLEY         PTCLDY    66  47  50 VRB3      30.11
JEROME         PTCLDY    64  45  49 SE7       30.12R
TWIN FALLS     LGT RAIN  68  43  40 S13G36    30.11
$$

IDZ019>023-300600-
SOUTHEAST IDAHO


CITY           SKY/WX    TMP DP  RH WIND       PRES   REMARKS
IDAHO FALLS    CLOUDY    57  49  74 NE5       30.23R
POCATELLO      PTCLDY    63  47  55 CALM      30.18R
REXBURG        CLOUDY    57  48  72 NE7       30.25R
$$

IDZ006-010-011-018-031-032-300600-
CENTRAL IDAHO MOUNTAINS


CITY           SKY/WX    TMP DP  RH WIND       PRES   REMARKS
MCCALL         PTCLDY    60  42  51 CALM      30.09S
HAILEY         PTCLDY    55  46  71 CALM      30.23R
STANLEY          N/A     49  39  68 S3        30.25S
SALMON         CLEAR     55  46  71 CALM      30.14S
CHALLIS        PTCLDY    52  46  80 E3        30.21S
$$

IDZ002-004-006-007-026-300600-
NORTHERN IDAHO


CITY           SKY/WX    TMP DP  RH WIND       PRES   REMARKS
LEWISTON       MOCLDY    68  50  52 W3        29.90R
LOWELL           N/A     58  54  86 N3        29.96R
COEUR D`ALENE  MOCLDY    63  50  62 SE10      29.97R
MULLAN PASS    PTCLDY    61  41  47 W3        30.14R
$$




USA.gov is the U.S. government's official web portal to all federal, state and local government web resources and services.